Hourly Data Report for October 05, 2013

All times are specified in Local Standard Time (LST). Add 1 hour to adjust for Daylight Saving Time where and when it is observed.

KAMLOOPS A
BRITISH COLUMBIA

50°42'09.000" N
120°26'55.000" W
345.30 m
1163781
71887
YKA

Download Data

Hourly Data (October 2013)
Hourly Data Report for October 5, 2013
Temp Definition
°C
Dew Point Temp Definition
°C
Rel Hum Definition
%
Wind Dir Definition
10's deg

Wind Spd Definition
km/h
Visibility Definition
km
Stn Press Definition
kPa
Hmdx Definition


Wind Chill Definition


Weather Definition


TIME
00:00 Legend Double Dagger 12.2 3.5 55 19 13 64.4 98.38     LegendNANA
01:00 Legend Double Dagger 12.6 3.3 53 9 14 64.4 98.39     Cloudy
02:00 Legend Double Dagger 12.4 3.4 54 8 11 64.4 98.33     LegendNANA
03:00 Legend Double Dagger 12.4 4.2 57 12 13 64.4 98.30     LegendNANA
04:00 Legend Double Dagger 11.9 4.2 59 10 15 64.4 98.28     Cloudy
05:00 Legend Double Dagger 10.2 4.2 66 11 16 64.4 98.28     LegendNANA
06:00 Legend Double Dagger 9.5 4.1 69 10 3 64.4 98.27     LegendNANA
07:00 Legend Double Dagger 10.2 4.2 66 7 8 64.4 98.27     Cloudy
08:00 Legend Double Dagger 11.2 5.1 66 18 5 64.4 98.26     LegendNANA
09:00 Legend Double Dagger 12.0 4.5 60 11 2 64.4 98.32     LegendNANA
10:00 Legend Double Dagger 12.9 5.4 60 10 5 64.4 98.32     Cloudy
11:00 Legend Double Dagger 13.3 5.5 59 10 13 64.4 98.29     LegendNANA
12:00 Legend Double Dagger 14.0 5.7 57 12 17 64.4 98.23     LegendNANA
13:00 Legend Double Dagger 14.1 5.8 57 11 22 64.4 98.17     Mostly Cloudy
14:00 Legend Double Dagger 13.6 6.0 60 10 23 64.4 98.10     LegendNANA
15:00 Legend Double Dagger 14.0 5.9 58 10 24 64.4 98.10     LegendNANA
16:00 Legend Double Dagger 13.6 5.8 59 11 33 64.4 98.03     Cloudy
17:00 Legend Double Dagger 13.3 6.2 62 10 30 64.4 98.01     LegendNANA
18:00 Legend Double Dagger 13.3 6.5 63 10 24 64.4 98.02     LegendNANA
19:00 Legend Double Dagger 12.8 6.4 65 10 28 64.4 98.04     Cloudy
20:00 Legend Double Dagger 12.5 6.6 67 13 17 64.4 98.00     LegendNANA
21:00 Legend Double Dagger 12.6 6.0 64 11 30 64.4 97.99     LegendNANA
22:00 Legend Double Dagger 12.3 6.0 65 12 17 64.4 98.00     Cloudy
23:00 Legend Double Dagger 12.3 6.2 66 12 19 64.4 97.97     LegendNANA

Notes on Data Quality.

Legend

  • E = Estimated
  • M = Missing
  • NA = Not Available
  • ‡ = Partner data that is not subject to review by the National Climate Archives
Date modified: